Location: Brest
(52.1000°N, 23.7000°E)
Time: 23:42:44
(UTC+03:00)

GENESIS II - Visible Passes

Search period start: 22 August 2017 00:00
Search period end: 01 September 2017 00:00
Orbit: 502 x 533 km, 64.5° (Epoch: 22 August)

Date Brightness Start Highest point End Pass type
(mag) Time Alt. Az. Time Alt. Az. Time Alt. Az.
22 Aug 7.0 21:37:11 10° W 21:38:49 12° WSW 21:40:27 10° SW visible
23 Aug 7.1 21:22:06 10° W 21:23:36 12° WSW 21:25:06 10° SW visible
24 Aug 7.2 21:07:02 10° W 21:08:23 11° WSW 21:09:43 10° SW visible
